Weather History for Camdenton, MO

Change the Weather History Date:

Saturday, January 5, 2013

  Actual Average (KAIZ) Record (KAIZ)
Temperature  
Mean Temperature 36 °F -  
Max Temperature 41 °F 40 °F 64 °F (2008)
Min Temperature 32 °F 23 °F -5 °F (1999)
Degree Days  
Heating Degree Days 28    
Moisture  
Dew Point 28 °F    
Average Humidity 71    
Maximum Humidity 81    
Minimum Humidity 60    
Precipitation  
Precipitation 0.00 in - - ()
Sea Level Pressure  
Sea Level Pressure 30.21 in    
Wind  
Wind Speed 7 mph (SSW)    
Max Wind Speed 13 mph    
Max Gust Speed 21 mph    
Visibility 10 miles    
Events Rain    
Averages and records for this station are not official NWS values.
T = Trace of Precipitation, MM = Missing Value Source: NWS Daily Summary

Daily Weather History Graph

Daily Weather History Graph

Search for Another Location

Airport:

Trip Planner

Search our weather history database for the weather conditions in past years. The results will help you decide how hot, cold, wet, or windy it might be!

Date:

Astronomy

Jan. 05, 2013 Rise Set
Actual Time 7:27 AM CST 5:05 PM CST
Civil Twilight 6:57 AM CST 5:35 PM CST
Nautical Twilight 6:25 AM CST 6:07 PM CST
Astronomical Twilight 5:53 AM CST 6:39 PM CST
Moon 12:37 AM CST (1/5) 11:52 AM CST (1/5)
Length of Visible Light 10h 37m
Length of Day
9h 38m
Last Quarter, 44% of the Moon is Illuminated
Jan 5
Last Quarter
Jan 11
New
Jan 18
First Quarter
Jan 26
Full
Feb 3
Last Quarter

Hourly Weather History & Observations

Time (CST) Temp. Windchill Dew Point Humidity Pressure Visibility Wind Dir Wind Speed Gust Speed Precip Events Conditions
12:15 AM 33.8 °F 26.4 °F 21.2 °F 60% 30.30 in 10.0 mi SSW 9.2 mph - N/A   Clear
12:35 AM 33.8 °F 27.0 °F 23.0 °F 65% 30.29 in 10.0 mi SSW 8.1 mph - N/A   Clear
12:55 AM 33.8 °F 29.6 °F 23.0 °F 65% 30.28 in 10.0 mi SSW 4.6 mph - N/A   Clear
1:15 AM 32.0 °F 26.4 °F 23.0 °F 69% 30.28 in 10.0 mi SSW 5.8 mph - N/A   Clear
1:35 AM 32.0 °F 26.4 °F 23.0 °F 69% 30.28 in 10.0 mi SSW 5.8 mph - N/A   Scattered Clouds
1:55 AM 33.8 °F 28.6 °F 23.0 °F 65% 30.27 in 10.0 mi SW 5.8 mph - N/A   Mostly Cloudy
2:15 AM 33.8 °F 28.6 °F 23.0 °F 65% 30.27 in 10.0 mi SW 5.8 mph - N/A   Mostly Cloudy
2:35 AM 33.8 °F 27.7 °F 23.0 °F 65% 30.27 in 10.0 mi SSW 6.9 mph - N/A   Scattered Clouds
2:55 AM 32.0 °F 26.4 °F 23.0 °F 69% 30.27 in 10.0 mi SSW 5.8 mph - N/A   Clear
3:15 AM 32.0 °F 25.6 °F 23.0 °F 69% 30.27 in 10.0 mi SSW 6.9 mph - N/A   Clear
3:35 AM 32.0 °F 26.4 °F 23.0 °F 69% 30.27 in 10.0 mi SSW 5.8 mph - N/A   Clear
3:55 AM 32.0 °F 26.4 °F 23.0 °F 69% 30.27 in 10.0 mi SSW 5.8 mph - N/A   Clear
4:15 AM 33.8 °F 29.6 °F 23.0 °F 65% 30.27 in 10.0 mi South 4.6 mph - N/A   Clear
4:35 AM 33.8 °F 30.8 °F 23.0 °F 65% 30.27 in 10.0 mi SSW 3.5 mph - N/A   Mostly Cloudy
4:55 AM 33.8 °F 27.0 °F 23.0 °F 65% 30.27 in 10.0 mi SSW 8.1 mph - N/A   Overcast
5:15 AM 35.6 °F 27.5 °F 23.0 °F 60% 30.26 in 10.0 mi SW 11.5 mph 20.7 mph N/A   Overcast
5:35 AM 33.8 °F 26.4 °F 23.0 °F 65% 30.26 in 10.0 mi SSW 9.2 mph - N/A   Overcast
5:55 AM 33.8 °F 28.6 °F 23.0 °F 65% 30.26 in 10.0 mi SSW 5.8 mph - N/A   Overcast
6:15 AM 33.8 °F 27.7 °F 23.0 °F 65% 30.26 in 10.0 mi SW 6.9 mph - N/A   Overcast
6:35 AM 33.8 °F 25.3 °F 23.0 °F 65% 30.26 in 10.0 mi WSW 11.5 mph - N/A   Overcast
7:15 AM 35.6 °F 28.6 °F 23.0 °F 60% 30.27 in 10.0 mi WSW 9.2 mph - N/A   Overcast
7:35 AM 35.6 °F 30.7 °F 24.8 °F 65% 30.28 in 10.0 mi South 5.8 mph - N/A   Overcast
7:55 AM 33.8 °F 29.6 °F 24.8 °F 70% 30.29 in 10.0 mi South 4.6 mph - N/A   Overcast
8:15 AM 33.8 °F 29.6 °F 24.8 °F 70% 30.28 in 10.0 mi SSE 4.6 mph - N/A   Overcast
8:35 AM 35.6 °F 30.7 °F 26.6 °F 70% 30.27 in 10.0 mi SSW 5.8 mph - N/A   Overcast
8:55 AM 35.6 °F 29.9 °F 26.6 °F 70% 30.27 in 10.0 mi SSW 6.9 mph - N/A   Overcast
9:15 AM 35.6 °F 29.2 °F 26.6 °F 70% 30.27 in 10.0 mi South 8.1 mph - N/A   Overcast
9:55 AM 37.4 °F 32.8 °F 26.6 °F 65% 30.26 in 10.0 mi South 5.8 mph - N/A   Overcast
10:15 AM 37.4 °F 33.8 °F 26.6 °F 65% 30.25 in 10.0 mi South 4.6 mph - N/A   Overcast
11:15 AM 39.2 °F 32.0 °F 26.6 °F 61% 30.23 in 10.0 mi South 11.5 mph 17.3 mph N/A   Overcast
11:55 AM 37.4 °F 30.8 °F 30.2 °F 75% 30.21 in 10.0 mi SSW 9.2 mph - N/A   Light Drizzle
12:15 PM 37.4 °F 30.3 °F 32.0 °F 81% 30.20 in 10.0 mi SSW 10.4 mph 19.6 mph N/A Rain Light Rain
12:35 PM 37.4 °F 29.3 °F 32.0 °F 81% 30.19 in 10.0 mi SSW 12.7 mph 16.1 mph N/A   Drizzle
12:55 PM 37.4 °F 30.8 °F 32.0 °F 81% 30.18 in 10.0 mi South 9.2 mph 17.3 mph N/A   Light Drizzle
1:15 PM 37.4 °F 32.1 °F 32.0 °F 81% 30.17 in 10.0 mi SSW 6.9 mph - N/A   Overcast
1:35 PM 37.4 °F 31.4 °F 32.0 °F 81% 30.16 in 10.0 mi SW 8.1 mph - N/A   Overcast
1:55 PM 37.4 °F 32.8 °F 32.0 °F 81% 30.15 in 10.0 mi South 5.8 mph - N/A   Overcast
2:15 PM 41.0 °F 35.8 °F 32.0 °F 70% 30.14 in 10.0 mi SSW 8.1 mph - N/A   Overcast
2:35 PM 41.0 °F 36.4 °F 32.0 °F 70% 30.14 in 10.0 mi South 6.9 mph - N/A   Overcast
2:55 PM 41.0 °F 37.1 °F 32.0 °F 70% 30.14 in 10.0 mi SSW 5.8 mph - N/A   Overcast
3:15 PM 41.0 °F 35.8 °F 30.2 °F 65% 30.13 in 10.0 mi South 8.1 mph - N/A   Overcast
3:35 PM 41.0 °F 35.2 °F 30.2 °F 65% 30.12 in 10.0 mi South 9.2 mph - N/A   Overcast
3:55 PM 41.0 °F 34.3 °F 30.2 °F 65% 30.12 in 10.0 mi South 11.5 mph - N/A   Overcast
4:15 PM 41.0 °F 35.2 °F 30.2 °F 65% 30.13 in 10.0 mi South 9.2 mph - N/A   Overcast
4:55 PM 41.0 °F 34.7 °F 30.2 °F 65% 30.14 in 10.0 mi SSW 10.4 mph - N/A   Overcast
5:15 PM 41.0 °F 34.7 °F 30.2 °F 65% 30.15 in 10.0 mi SSW 10.4 mph - N/A   Overcast
5:35 PM 41.0 °F 36.4 °F 30.2 °F 65% 30.15 in 10.0 mi SSW 6.9 mph - N/A   Overcast
5:55 PM 41.0 °F 35.8 °F 30.2 °F 65% 30.16 in 10.0 mi SSW 8.1 mph - N/A   Overcast
6:15 PM 41.0 °F 36.4 °F 30.2 °F 65% 30.16 in 10.0 mi SSW 6.9 mph - N/A   Overcast
6:35 PM 39.2 °F 33.6 °F 32.0 °F 75% 30.16 in 10.0 mi SSW 8.1 mph - N/A   Overcast
6:55 PM 39.2 °F 33.6 °F 32.0 °F 75% 30.16 in 10.0 mi SW 8.1 mph - N/A   Overcast
7:15 PM 37.4 °F 32.1 °F 32.0 °F 81% 30.16 in 10.0 mi SSW 6.9 mph - N/A   Mostly Cloudy
7:35 PM 37.4 °F 32.8 °F 30.2 °F 75% 30.16 in 10.0 mi South 5.8 mph - N/A   Clear
7:55 PM 37.4 °F 32.8 °F 32.0 °F 81% 30.16 in 10.0 mi SSW 5.8 mph - N/A   Clear
8:15 PM 37.4 °F 32.1 °F 32.0 °F 81% 30.16 in 10.0 mi SSW 6.9 mph - N/A   Clear
8:35 PM 37.4 °F 32.1 °F 32.0 °F 81% 30.16 in 10.0 mi SSW 6.9 mph - N/A   Scattered Clouds
8:55 PM 37.4 °F 31.4 °F 32.0 °F 81% 30.16 in 10.0 mi SSW 8.1 mph - N/A   Scattered Clouds
9:15 PM 37.4 °F 30.8 °F 30.2 °F 75% 30.15 in 10.0 mi SSW 9.2 mph - N/A   Clear
9:35 PM 37.4 °F 30.8 °F 30.2 °F 75% 30.15 in 10.0 mi SSW 9.2 mph - N/A   Clear
9:55 PM 35.6 °F 29.9 °F 30.2 °F 81% 30.15 in 10.0 mi SSW 6.9 mph - N/A   Clear
10:15 PM 35.6 °F 29.2 °F 30.2 °F 81% 30.15 in 10.0 mi South 8.1 mph - N/A   Clear
10:35 PM 35.6 °F 29.2 °F 30.2 °F 81% 30.15 in 10.0 mi SSW 8.1 mph - N/A   Clear
10:55 PM 35.6 °F 28.0 °F 30.2 °F 81% 30.15 in 10.0 mi SSW 10.4 mph - N/A   Clear
11:15 PM 35.6 °F 28.6 °F 30.2 °F 81% 30.16 in 10.0 mi SW 9.2 mph - N/A   Clear
11:35 PM 35.6 °F 27.5 °F 30.2 °F 81% 30.16 in 10.0 mi SW 11.5 mph - N/A   Clear
11:55 PM 35.6 °F 29.2 °F 30.2 °F 81% 30.16 in 10.0 mi SW 8.1 mph - N/A   Clear